リニア彗星

402P/LINEAR (2021)

English version
Home page
Updated on October 14, 2023

---------------------------------------------------------------------

・ プロフィール

符号 402P/2020 Q3
検出日 2020年8月18日
検出光度 19.5等
検出者 E. Schwab (Egelsbach, Germany)

・ 写真集

・ 軌道要素

Epoch 2022 Aug. 9.0 TT = JDT 2459800.5
T 2021 Dec. 14.60632 TT                                 Rudenko
q   3.9378682            (2000.0)            P               Q
n   0.05298174     Peri.  326.73627     -0.06203011     -0.90089459
a   7.0207781      Node   123.09314     +0.99048048     -0.10855752
e   0.4391123      Incl.   30.84788     +0.12288488     +0.42024303
P  18.6
>From 1772 observations 2001 Nov. 22-2022 Nov. 1, mean residual 0".6.
     Nongravitational parameters A1 = +0.00, A2 = +0.0000.

・ 星図

・ 光度変化

        m1 = -5   + 5 logΔ + 30   log r  [    ,-280]  (              〜2021年 3月 9日)
        m1 =  6.0 + 5 logΔ + 12.5 log r  [-280,    ]  (2021年 3月 9日〜              )

---------------------------------------------------------------------

軌道要素はM.P.E.C. 2022-V95に掲載されたものです。
星図はステラナビゲータ Ver.10 (アストロアーツ) で作成したものです。
光度グラフはComet for Windowsで作成したものです。

---------------------------------------------------------------------

Copyright(C) Seiichi Yoshida (comet@aerith.net). All rights reserved.